GW2134 Weather Reports


Display with metric or nautical units.
time (UTC)temp
F
wind
direction
speed
MPH
gust
MPH
rain 1hr
in
rain 24hr
in
rain mn
in
humidity
%
barometer
mb
20260507011553 50 342 3.0 5.0 0.00 0.81 0.00 73 1014.3
20260507004551 51 338 3.0 6.0 0.00 0.88 0.00 72 1014.2
20260507003056 51 328 3.0 7.0 0.00 0.88 0.00 73 1014.0
20260507001554 52 338 3.0 6.0 0.00 0.88 0.00 72 1014.2
20260507000052 52 342 2.0 8.0 0.00 0.88 0.00 72 1014.3
20260506234554 52 355 3.0 9.0 0.00 0.94 0.00 72 1014.3
20260506233104 52 11 2.0 6.0 0.00 0.94 0.00 70 1014.4
20260506231600 52 360 2.0 5.0 0.00 0.94 0.00 69 1014.2
20260506230105 53 360 2.0 9.0 0.00 0.94 0.00 69 1014.3
20260506224559 53 360 3.0 7.0 0.00 0.98 0.00 68 1014.5
20260506223059 53 16 2.0 5.0 0.00 0.98 0.00 66 1014.5
20260506221600 53 319 2.0 7.0 0.00 0.98 0.00 63 1014.3
20260506220059 54 22 2.0 8.0 0.00 0.98 0.00 62 1014.4
20260506214601 54 360 1.0 4.0 0.00 0.98 0.98 60 1014.3
20260506213055 55 99 0.0 2.0 0.00 0.98 0.98 59 1014.1
20260506211610 55 181 0.0 6.0 0.00 0.98 0.98 55 1014.2
20260506210058 55 360 3.0 5.0 0.00 0.98 0.98 57 1014.2
20260506204556 55 0 0.0 5.0 0.00 0.98 0.98 59 1013.9
20260506203052 55 360 4.0 15.0 0.00 0.98 0.98 58 1013.4
20260506201553 56 360 7.0 19.0 0.00 0.98 0.98 59 1013.0
20260506200056 57 360 11.0 24.0 0.00 0.98 0.98 58 1013.0
20260506194601 57 360 7.0 18.0 0.00 0.98 0.98 58 1013.0
20260506193103 59 360 9.0 19.0 0.00 0.98 0.98 56 1012.9
20260506191555 58 360 3.0 14.0 0.00 0.98 0.98 56 1012.9
20260506190056 58 360 7.0 19.0 0.00 0.98 0.98 55 1012.6
20260506184550 59 360 3.0 19.0 0.00 0.98 0.98 53 1012.4
20260506183100 58 360 13.0 23.0 0.00 0.98 0.98 52 1012.3
20260506181549 57 360 3.0 13.0 0.00 0.98 0.98 56 1012.3
20260506180055 57 360 7.0 16.0 0.00 0.98 0.98 57 1012.3
20260506174552 57 360 6.0 16.0 0.00 0.98 0.98 56 1012.3
20260506173107 57 360 5.0 12.0 0.00 0.98 0.98 57 1012.2
20260506171558 57 360 4.0 12.0 0.00 0.98 0.98 56 1012.3
20260506164611 59 165 3.0 10.0 0.00 0.98 0.98 59 1012.2
20260506163058 59 224 2.0 11.0 0.00 0.98 0.98 56 1012.3
20260506161554 60 338 1.0 10.0 0.00 0.98 0.98 58 1012.3
20260506160105 60 56 3.0 12.0 0.00 0.98 0.98 59 1012.4
20260506154554 60 163 5.0 10.0 0.00 0.98 0.98 62 1012.4
20260506153050 61 182 5.0 9.0 0.00 0.98 0.98 63 1012.4
20260506151555 60 194 2.0 8.0 0.00 0.98 0.98 63 1012.3
20260506144609 61 170 1.0 12.0 0.00 0.98 0.98 65 1012.5
20260506143055 61 360 1.0 12.0 0.00 0.98 0.98 68 1012.3
20260506141610 60 167 5.0 13.0 0.00 0.98 0.98 67 1012.3
20260506140054 60 0 0.0 9.0 0.00 0.98 0.98 74 1012.3
20260506134601 59 189 3.0 8.0 0.00 0.98 0.98 76 1012.6
20260506133108 59 360 2.0 8.0 0.00 0.98 0.98 74 1012.5
20260506131557 58 360 2.0 9.0 0.01 0.98 0.98 76 1012.7
20260506130055 57 360 2.0 6.0 0.03 0.98 0.98 80 1012.8
20260506124549 55 333 1.0 7.0 0.07 0.98 0.98 82 1013.0
20260506123051 54 27 2.0 5.0 0.08 0.98 0.98 86 1013.3
20260506121610 54 360 3.0 6.0 0.09 0.96 0.96 86 1012.9
20260506120119 54 360 2.0 9.0 0.09 0.93 0.93 86 1012.4
20260506114551 54 13 2.0 12.0 0.06 0.90 0.90 86 1012.4
20260506113051 54 95 5.0 16.0 0.06 0.89 0.89 88 1012.5
20260506111555 56 263 5.0 11.0 0.03 0.87 0.87 91 1012.4
20260506110054 56 0 0.0 5.0 0.00 0.84 0.84 91 1012.4
20260506104550 56 68 1.0 6.0 0.00 0.85 0.84 91 1012.4
20260506103055 56 291 0.0 8.0 0.00 0.84 0.83 92 1012.3
20260506101552 55 21 2.0 7.0 0.00 0.84 0.83 92 1012.5
20260506100054 55 119 0.0 6.0 0.00 0.84 0.83 92 1012.4
20260506094551 54 0 0.0 8.0 0.02 0.96 0.83 93 1012.5
20260506093054 54 174 1.0 7.0 0.03 0.95 0.82 93 1012.7
20260506091556 54 129 3.0 8.0 0.03 0.95 0.82 92 1012.5
20260506090052 54 325 2.0 13.0 0.06 0.95 0.82 92 1012.5
20260506084548 54 169 3.0 12.0 0.04 1.00 0.81 92 1012.4
20260506083049 54 0 0.0 4.0 0.03 0.98 0.79 93 1012.4
20260506081554 54 0 0.0 4.0 0.03 0.97 0.78 93 1012.3
20260506073058 53 31 0.0 5.0 0.07 0.98 0.75 93 1012.2
20260506071556 53 0 0.0 3.0 0.07 0.97 0.74 93 1012.3
20260506070116 52 0 0.0 2.0 0.06 0.96 0.74 93 1012.4
20260506061603 52 0 0.0 3.0 0.05 0.92 0.67 92 1012.4
20260506050110 52 18 0.0 4.0 0.13 1.01 0.60 92 1012.9
20260506044559 51 347 0.0 5.0 0.15 1.02 0.58 92 1012.9
20260506043053 51 355 1.0 4.0 0.17 0.98 0.54 92 1012.8
20260506041556 51 333 2.0 4.0 0.18 0.96 0.51 92 1012.9
20260506040059 52 0 0.0 2.0 0.15 0.91 0.47 92 1012.9
20260506034553 52 0 0.0 1.0 0.15 0.89 0.42 92 1013.4
20260506033059 52 127 0.0 3.0 0.10 0.84 0.37 92 1013.5
20260506031603 52 0 0.0 1.0 0.06 0.80 0.33 91 1013.5
20260506030115 52 164 0.0 1.0 0.04 0.78 0.31 91 1013.6
20260506024556 52 164 0.0 2.0 0.03 0.76 0.26 91 1013.6
20260506023052 52 0 0.0 2.0 0.07 0.76 0.26 91 1013.7
20260506021553 53 172 0.0 4.0 0.07 0.76 0.26 91 1013.7
20260506020053 53 0 0.0 4.0 0.09 0.76 0.26 91 1014.0
20260506014602 53 192 0.0 5.0 0.09 0.73 0.23 91 1014.1
20260506013058 53 186 1.0 4.0 0.07 0.69 0.19 90 1013.9